Tracking 27107 objects as of 20-Mar-2023
HD Live streaming from Space Station
objects crossing your sky now

SL-12 R/B(2)

Track SL-12 R/B(2) now!


NORAD ID: 23401
Int'l Code: 1994-076F
Perigee: 19,070.1 km
Apogee: 19,131.7 km
Inclination: 64.3 °
Period: 674.3 minutes
Semi major axis: 25471 km
RCS: 2.156 m2 (large)
Launch date: November 20, 1994
Source: Commonwealth of Independent States (former USSR) (CIS)
Launch site: TYURATAM MISSILE AND SPACE COMPLEX (TTMTR)

Note: This is a ROCKET BODY
Your satellite tracking list
Your tracking list is empty




NASA's NSSDC Master Catalog

Two Line Element Set (TLE):
1 23401U 94076F   23076.14708876  .00000060  00000-0  00000-0 0  9991
2 23401  64.2566 108.2288 0012104 292.9562 149.0929  2.13555671220848
Source of the keplerian elements: AFSPC